[[{"header":{"parameterUnit":"m.s-1","parameterCategory":1,"la1":30.2991,"la2":30.254,"lo1":-89.0895,"lo2":-89.0444,"dy":0.0017,"dx":0.0017,"nx":28,"ny":28,"refTime":"2025-04-03T09:00:00:Z","depth":0,"parameterNumber":2,"parameterNumberName":"U-component_of_WINDS"},"data":[0,0,0,0,0,0,0,0,0,0,0,0,0,0,0,0,0,0,0,0,0,0,0,0,0,0,0,0,0,0,0,0,0,0,0,0,0,0,0,0,0,0,0,0,0,0,0,0,0,0,0,0,0,0,0,0,0,0,-5.2779,-5.278,0,-5.2886,-5.2887,-5.2888,-5.2887,-5.2886,-5.2884,-5.2883,-5.2991,-5.2995,-5.2999,0,0,0,0,0,0,0,0,0,0,0,0,0,-5.2574,-5.2578,-5.2779,-5.278,-5.2782,-5.2886,-5.2887,-5.2888,-5.2888,-5.2886,-5.2884,-5.2883,-5.299,-5.2995,-5.3,0,0,0,0,0,0,0,0,0,0,0,0,0,-5.267,-5.2579,-5.2779,-5.2794,-5.2796,-5.2885,-5.2887,-5.2889,-5.2888,-5.2886,-5.2884,-5.2882,-5.2988,-5.2994,-5.3,-5.3081,0,0,-5.302,-5.3022,0,0,0,0,0,0,0,0,-5.2665,-5.2678,-5.279,-5.2793,-5.2796,-5.2871,-5.2854,-5.2953,-5.2888,-5.2853,-5.2883,-5.2881,-5.2953,-5.2962,-5.2986,-5.3086,-5.3091,-5.302,-5.3024,-5.3027,-5.3028,0,0,0,0,0,0,0,-5.2658,-5.2673,-5.2821,-5.2792,-5.2795,-5.2795,-5.2806,-5.2873,-5.2913,-5.2856,-5.2856,-5.2869,-5.2954,-5.298,-5.2989,-5.3093,-5.302,-5.3026,-5.3029,-5.3032,-5.3263,-5.3266,0,0,0,0,0,0,-5.2648,-5.2668,-5.2818,-5.2824,-5.2724,-5.28,-5.2813,-5.2849,-5.2913,-5.292,-5.2871,-5.2868,-5.2971,-5.2982,-5.2993,-5.309,-5.3027,-5.3033,-5.3036,-5.3261,-5.3264,-5.3267,0,0,0,0,0,0,-5.2644,-5.2662,-5.2814,-5.2746,-5.2765,-5.2806,-5.2847,-5.2852,-5.2879,-5.2924,-5.2931,-5.289,-5.297,-5.2984,-5.3059,-5.3094,-5.3035,-5.3041,-5.3258,-5.3262,-5.3265,-5.3286,0,0,0,0,0,0,-5.2638,-5.266,-5.2691,-5.2747,-5.2769,-5.2878,-5.2849,-5.2856,-5.289,-5.2888,-5.2944,-5.2951,-5.2969,-5.305,-5.3065,-5.3101,-5.3046,-5.3255,-5.326,-5.3264,-5.3282,-5.329,-5.3296,0,0,0,0,0,-5.2631,-5.2693,-5.2693,-5.2711,-5.2809,-5.288,-5.2893,-5.2912,-5.2892,-5.2924,-5.2953,-5.2949,-5.3089,-5.3058,-5.3075,-5.3113,-5.3253,-5.3259,-5.3264,-5.3279,-5.3289,-5.3296,0,0,0,0,0,0,-5.264,-5.27,-5.2701,-5.2783,-5.2827,-5.288,-5.292,-5.2922,-5.2971,-5.2967,-5.2989,-5.3002,-5.3077,-5.3103,-5.3068,-5.3195,-5.3168,-5.3177,-5.3174,-5.3183,-5.319,-5.3181,-5.3051,0,0,0,0,0,-5.2652,-5.2705,-5.2755,-5.2822,-5.2844,-5.2879,-5.291,-5.2922,-5.2968,-5.2986,-5.302,-5.3065,-5.3118,-5.3153,-5.3205,-5.3288,-5.3299,-5.3323,-5.333,-5.3335,-5.3342,-5.3387,-5.3397,-5.3284,-5.3284,-5.3284,0,0,-5.2676,-5.2716,-5.2748,-5.2825,-5.286,-5.2914,-5.2894,-5.2952,-5.2992,-5.2994,-5.3067,-5.3094,-5.3145,-5.3224,-5.3261,-5.3249,-5.3376,-5.3342,-5.3346,-5.335,-5.3393,-5.3404,-5.3413,-5.3288,-5.3287,-5.3287,0,0,-5.2747,-5.2783,-5.2842,-5.2878,-5.2932,-5.2955,-5.2969,-5.3023,-5.3041,-5.3114,-5.3117,-5.3166,-5.3258,-5.3293,-5.3324,-5.341,-5.3408,-5.3427,-5.3462,-5.3505,-5.3514,-5.3522,-5.3551,-5.3561,-5.3434,-5.3434,-5.3434,0,-5.2769,-5.2851,-5.2873,-5.2931,-5.2965,-5.2971,-5.3031,-5.3064,-5.3132,-5.3155,-5.3141,-5.3257,-5.3292,-5.3378,-5.3399,-5.3425,-5.3441,-5.3419,-5.3511,-5.3519,-5.3527,-5.3555,-5.3566,-5.3436,-5.3436,-5.3435,-5.3435,0,-5.2876,-5.2932,-5.2974,-5.3039,-5.3078,-5.3137,-5.3167,-5.3204,-5.3213,-5.3237,-5.3312,-5.3354,-5.3414,-5.3437,-5.3446,-5.3525,-5.3516,-5.3507,-5.3479,-5.3539,-5.3565,-5.3576,-5.3438,-5.3437,-5.3437,-5.3437,0,0,-5.2952,-5.303,-5.3044,-5.3074,-5.3134,-5.3178,-5.3238,-5.3297,-5.3327,-5.3375,-5.3424,-5.3503,-5.3495,-5.3529,-5.3543,-5.3581,-5.3645,-5.3567,-5.3569,-5.3578,-5.3733,-5.3737,-5.3749,-5.3646,-5.3648,-5.3649,-5.3727,0,-5.3027,-5.3132,-5.3154,-5.3245,-5.3297,-5.3305,-5.3356,-5.3399,-5.3424,-5.3471,-5.3499,-5.3553,-5.354,-5.356,-5.3599,-5.3629,-5.3676,-5.3624,-5.369,-5.3692,-5.3673,-5.3763,-5.3768,-5.3839,-5.3738,-5.374,-5.3741,0,-5.3128,-5.3178,-5.3274,-5.3327,-5.335,-5.3396,-5.3451,-5.3498,-5.3546,-5.3562,-5.3601,-5.3611,-5.3672,-5.3645,-5.373,-5.3694,-5.3723,-5.3742,-5.3746,-5.375,-5.3718,-5.3767,-5.3862,-5.3872,-5.3758,-5.3757,-5.3755,0,-5.3171,-5.3263,-5.3331,-5.3357,-5.3421,-5.3453,-5.3481,-5.3528,-5.3562,-5.3612,-5.3634,-5.369,-5.372,-5.3764,-5.3788,-5.3767,-5.3871,-5.3846,-5.3884,-5.3883,-5.3902,-5.39,-5.4001,-5.3926,-5.3926,-5.3926,-5.3926,0,-5.3251,-5.3309,-5.3351,-5.3393,-5.3458,-5.3484,-5.3547,-5.3575,-5.3617,-5.3664,-5.3676,-5.372,-5.3751,-5.38,-5.382,-5.3886,-5.39,-5.3914,-5.3918,-5.3911,-5.3909,-5.3927,-5.3922,-5.3929,-5.3928,-5.3927,-5.3927,0,-5.3308,-5.334,-5.3414,-5.347,-5.3485,-5.353,-5.3578,-5.3619,-5.3645,-5.3704,-5.372,-5.376,-5.3818,-5.3848,-5.3921,-5.3934,-5.4008,-5.4011,-5.3991,-5.3992,-5.4027,-5.4022,-5.4141,-5.4157,-5.4074,-5.4075,-5.4076,0,-5.3355,-5.34,-5.346,-5.3493,-5.3522,-5.3575,-5.361,-5.3637,-5.3673,-5.3732,-5.3766,-5.3825,-5.3873,-5.3965,-5.4001,-5.4056,-5.4058,-5.4096,-5.4066,-5.4058,-5.4056,-5.4051,-5.4055,-5.41,-5.4101,-5.4102,-5.4102,0,-5.3435,-5.3449,-5.3499,-5.3554,-5.3596,-5.3641,-5.3686,-5.3712,-5.3747,-5.3787,-5.3846,-5.3884,-5.3958,-5.4015,-5.4074,-5.4103,-5.4108,-5.4112,-5.4123,-5.4115,-5.41,-5.4106,-5.4002,-5.4108,-5.4107,-5.4107,-5.4107,-5.4107,-5.3487,-5.3526,-5.3575,-5.363,-5.3667,-5.3709,-5.375,-5.3781,-5.3831,-5.3893,-5.3907,-5.397,-5.4018,-5.4097,-5.4128,-5.4177,-5.4169,-5.4186,-5.4189,-5.4192,-5.4193,-5.4096,-5.4188,-5.4188,-5.4188,-5.4188,-5.4188,0,-5.3565,-5.3597,-5.3648,-5.371,-5.3754,-5.3756,-5.3806,-5.3842,-5.3897,-5.3942,-5.3989,-5.4057,-5.4113,-5.4154,-5.4211,-5.4243,-5.4247,-5.4257,-5.4253,-5.4259,-5.4198,-5.4181,-5.4253,-5.4253,-5.4253,-5.4253,-5.4253,-5.4253,-5.361,-5.3676,-5.3696,-5.3781,-5.3813,-5.3874,-5.3902,-5.394,-5.3976,-5.4051,-5.4098,-5.4125,-5.4168,-5.4228,-5.428,-5.4291,-5.431,-5.432,-5.433,-5.4271,-5.4264,-5.4257,-5.4241,-5.4325,-5.4325,-5.4387,-5.4388,-5.4388]},{"header":{"parameterUnit":"m.s-1","parameterCategory":1,"la1":30.2991,"la2":30.254,"lo1":-89.0895,"lo2":-89.0444,"dy":0.0017,"dx":0.0017,"nx":28,"ny":28,"refTime":"2025-04-03T09:00:00:Z","depth":0,"parameterNumber":3,"parameterNumberName":"V-component_of_WINDS"},"data":[0,0,0,0,0,0,0,0,0,0,0,0,0,0,0,0,0,0,0,0,0,0,0,0,0,0,0,0,0,0,0,0,0,0,0,0,0,0,0,0,0,0,0,0,0,0,0,0,0,0,0,0,0,0,0,0,0,0,4.2079,4.2079,0,4.2113,4.2113,4.2114,4.2111,4.2111,4.211,4.211,4.2141,4.2143,4.2144,0,0,0,0,0,0,0,0,0,0,0,0,0,4.2011,4.2012,4.2079,4.2079,4.208,4.2113,4.2113,4.2114,4.2111,4.2111,4.211,4.2109,4.2141,4.2142,4.2144,0,0,0,0,0,0,0,0,0,0,0,0,0,4.2042,4.2012,4.2079,4.2083,4.2083,4.2113,4.2113,4.2114,4.2111,4.2111,4.211,4.2109,4.214,4.2142,4.2144,4.2171,0,0,4.215,4.2151,0,0,0,0,0,0,0,0,4.204,4.2044,4.2082,4.2082,4.2083,4.2107,4.2101,4.2133,4.2111,4.2101,4.211,4.2109,4.213,4.2133,4.2141,4.2173,4.2174,4.215,4.2152,4.2152,4.2153,0,0,0,0,0,0,0,4.2038,4.2043,4.2092,4.2082,4.2083,4.2082,4.2086,4.2107,4.2119,4.2101,4.2101,4.2106,4.2131,4.2139,4.2142,4.2174,4.215,4.2152,4.2153,4.2154,4.2232,4.2233,0,0,0,0,0,0,4.2035,4.2041,4.2091,4.2093,4.206,4.2084,4.2088,4.21,4.2119,4.2121,4.2106,4.2105,4.2136,4.2139,4.2143,4.2177,4.2152,4.2154,4.2155,4.2231,4.2232,4.2233,0,0,0,0,0,0,4.2034,4.204,4.209,4.2067,4.2074,4.2086,4.2099,4.2101,4.211,4.2122,4.2124,4.2113,4.2136,4.214,4.2165,4.2178,4.2155,4.2157,4.223,4.2231,4.2232,4.2245,0,0,0,0,0,0,4.2032,4.2039,4.205,4.2068,4.2075,4.2112,4.21,4.2102,4.2113,4.2113,4.2129,4.2131,4.2135,4.2162,4.2167,4.218,4.2158,4.2229,4.223,4.2232,4.2243,4.2246,4.2249,0,0,0,0,0,4.2029,4.2051,4.205,4.2056,4.2088,4.2112,4.2117,4.2122,4.2114,4.2125,4.2134,4.2131,4.2176,4.2164,4.217,4.2184,4.2228,4.223,4.2232,4.2242,4.2246,4.2249,0,0,0,0,0,0,4.2033,4.2053,4.2053,4.2081,4.2095,4.2112,4.2126,4.2125,4.2141,4.214,4.2145,4.2149,4.2174,4.2181,4.2168,4.2212,4.2201,4.2204,4.2207,4.221,4.2213,4.2211,4.216,0,0,0,0,0,4.2037,4.2056,4.2072,4.2095,4.2103,4.2113,4.2124,4.2127,4.2141,4.2147,4.2157,4.2171,4.2188,4.2199,4.2216,4.2244,4.2248,4.2257,4.226,4.2262,4.2265,4.2282,4.2287,4.224,4.224,4.224,0,0,4.2046,4.2059,4.207,4.2096,4.2108,4.2127,4.2118,4.2138,4.2152,4.215,4.2175,4.2182,4.2198,4.2225,4.2238,4.2232,4.2279,4.2265,4.2266,4.2268,4.2285,4.2289,4.2293,4.2241,4.2241,4.224,0,0,4.2071,4.2083,4.2105,4.2117,4.2135,4.2142,4.2147,4.2165,4.217,4.2196,4.2195,4.2211,4.224,4.2252,4.2262,4.2294,4.2292,4.2299,4.2315,4.2331,4.2335,4.2338,4.2351,4.2355,4.2302,4.2302,4.2302,0,4.2079,4.2109,4.2115,4.2136,4.2148,4.2148,4.2171,4.2181,4.2204,4.2212,4.2205,4.2244,4.2254,4.2285,4.2293,4.2301,4.2307,4.2298,4.2334,4.2337,4.2341,4.2353,4.2358,4.2303,4.2303,4.2303,4.2303,0,4.2119,4.2139,4.2154,4.2178,4.2191,4.2212,4.2222,4.2235,4.2237,4.2244,4.2271,4.2283,4.2303,4.2311,4.2312,4.2342,4.2338,4.2333,4.2322,4.2346,4.2358,4.2362,4.2304,4.2304,4.2304,4.2303,0,0,4.2147,4.2175,4.2181,4.2192,4.2213,4.2229,4.225,4.2271,4.2283,4.2298,4.2316,4.2342,4.2338,4.2349,4.2352,4.2367,4.2393,4.236,4.236,4.2367,4.2429,4.2433,4.2439,4.2392,4.2393,4.2393,4.2428,0,4.2176,4.2216,4.2223,4.2257,4.2277,4.2278,4.2297,4.2311,4.2319,4.2337,4.2345,4.2364,4.2356,4.2363,4.2378,4.2387,4.2406,4.2384,4.2409,4.241,4.2407,4.2444,4.2449,4.2481,4.2432,4.2433,4.2433,0,4.2215,4.2233,4.227,4.229,4.2299,4.2316,4.2337,4.2353,4.237,4.2375,4.2388,4.239,4.2412,4.24,4.2431,4.2417,4.2427,4.2433,4.2435,4.2438,4.2424,4.245,4.2491,4.2496,4.244,4.244,4.2439,0,4.2234,4.2268,4.2295,4.2304,4.2328,4.234,4.235,4.2366,4.2379,4.2397,4.2405,4.2425,4.2436,4.2451,4.2457,4.2447,4.2489,4.2476,4.2494,4.2494,4.2503,4.2503,4.2548,4.2508,4.2508,4.2508,4.2508,0,4.2266,4.2289,4.2304,4.2321,4.2347,4.2355,4.238,4.2389,4.2404,4.2423,4.2424,4.2441,4.2449,4.2467,4.2472,4.2498,4.2503,4.2507,4.2509,4.2508,4.2508,4.2516,4.2514,4.2509,4.2509,4.2509,4.2508,0,4.2292,4.2303,4.2333,4.2353,4.2359,4.2377,4.2395,4.2411,4.2419,4.2443,4.2449,4.2461,4.2483,4.2492,4.2517,4.2521,4.2552,4.2551,4.2547,4.2547,4.2565,4.2564,4.2618,4.2626,4.2579,4.258,4.258,0,4.2312,4.233,4.2354,4.2367,4.2378,4.2399,4.2413,4.2421,4.2435,4.2457,4.247,4.2492,4.2511,4.2545,4.2557,4.2577,4.2577,4.2595,4.258,4.2579,4.2579,4.2579,4.2581,4.2598,4.2598,4.2598,4.2599,0,4.2348,4.2353,4.2373,4.2396,4.2413,4.2431,4.2448,4.2458,4.2469,4.2485,4.2508,4.2523,4.2551,4.2573,4.2594,4.2604,4.2603,4.2603,4.2609,4.2609,4.2606,4.2609,4.2555,4.2602,4.2602,4.2602,4.2601,4.2601,4.2373,4.239,4.241,4.2432,4.2447,4.2463,4.248,4.2492,4.2512,4.2536,4.2539,4.2564,4.2582,4.261,4.2621,4.2641,4.2636,4.2643,4.2645,4.2648,4.265,4.2602,4.2644,4.2644,4.2644,4.2644,4.2644,0,4.241,4.2423,4.2444,4.247,4.2488,4.2487,4.2507,4.2522,4.2544,4.2561,4.258,4.2607,4.2629,4.2642,4.2664,4.2678,4.2678,4.2683,4.2683,4.2686,4.2652,4.2646,4.2683,4.2683,4.2683,4.2683,4.2683,4.2683,4.2432,4.2461,4.2469,4.2505,4.2518,4.2544,4.2555,4.257,4.2584,4.2615,4.2634,4.2643,4.2659,4.2682,4.2702,4.2706,4.2714,4.272,4.2723,4.2692,4.2688,4.2684,4.2678,4.2721,4.2722,4.2755,4.2756,4.2756]}]]